Simultaneous Nadir Overpasses (SNOs) Predictions

Prediction of SNOs between GOES-14 and NOAA-20 Satellite Orbit:

Table of predicted SNOs for the next 14.0 days since TLE Epoch: 4/30/2022
Index Date Time (GOES-14) GOES-14 Lat,Lon NOAA-20 Lat,Lon Distance(km) Time Diff (sec)
1 04/30/2022 20:36:38 -0.10,-104.55 -0.71,-107.32 315.31 80
2 05/01/2022 20:15:14 -0.11,-104.55 0.31,-102.79 200.33 80
3 05/03/2022 08:37:01 0.09,-104.44 0.91,-108.06 412.36 80
4 05/04/2022 08:20:56 0.10,-104.45 -0.11,-103.53 104.84 80
5 05/05/2022 20:42:54 -0.08,-104.57 -1.02,-108.85 487.26 80
6 05/06/2022 20:21:28 -0.09,-104.56 -0.06,-104.31 28.48 80
7 05/09/2022 08:24:31 0.09,-104.44 0.24,-105.05 69.64 80
8 05/10/2022 08:08:27 0.10,-104.45 -0.79,-100.52 447.75 80
9 05/11/2022 20:30:24 -0.08,-104.58 -0.34,-105.84 142.92 80
10 05/12/2022 20:08:58 -0.09,-104.58 0.63,-101.30 373.00 80
